Location: Adamstown South Public School
(32.9318°S, 151.7012°E)
Time: 17:55:22
(UTC+00:00)

H-2A R/B - Pass Details

Date: 07 June 2020
Orbit: 500 x 542 km, 97.3° (Epoch: 17 June)

Event Time Altitude Azimuth Distance (km) Brightness Sun altitude
Rises 08:09:51 0° 178° (S) 2,726 6.2 -15.7°
Reaches altitude 10° 08:12:04 10° 185° (S) 1,829 5.4 -16.1°
Maximum altitude 08:15:46 40° 255° (WSW) 824 4.2 -16.9°
Drops below altitude 10° 08:19:27 10° 324° (NW) 1,810 6.2 -17.6°
Sets 08:21:38 0° 331° (NNW) 2,694 7.0 -18.1°
